Location: Madrid
(40.4000°N, 3.6830°W)
Time: 08:43:40
(UTC+02:00)

ISS - Pass Details

Date: 22 July 2017
Orbit: 400 x 408 km, 51.6° (Epoch: 21 July)

Event Time Altitude Azimuth Distance (km) Brightness Sun altitude
Exits shadow 02:43:19 - 321° (NW) 1,563 -0.3 -29.1°
Reaches altitude 10° 02:43:53 10° 329° (NNW) 1,453 -0.4 -29.1°
Maximum altitude 02:45:15 12° 354° (N) 1,337 -0.4 -29.1°
Drops below altitude 10° 02:46:36 10° 19° (NNE) 1,455 -0.1 -29.0°
Sets 02:49:46 0° 52° (NE) 2,316 0.6 -29.0°
